Back to catalog

THORAD DELTA 1 DEB

AliveSSO
NORAD 8160·DEBRIS·🇺🇸 United States

Launched Nov 15, 1974 from Vandenberg Space Force Base

Loading…

Next Passes (next 24 hours)

TLE

FreshSource: Space-Track

Epoch: Sep 14, 2026, 08:33 UTC

1 08160U 74089AA  26257.35633179  .00000017  00000-0  33986-3 0  9992
2 08160 101.8411  36.4458 0146411 268.5688 117.5601 12.63552066389123

Track THORAD DELTA 1 DEB in real time with AllMySat

Download on the App Store